TimeEST,TemperatureF,Dew PointF,Humidity,Sea Level PressureIn,VisibilityMPH,Wind Direction,Wind SpeedMPH,Gust SpeedMPH,PrecipitationIn,Events,Conditions,WindDirDegrees,DateUTC
12:15 AM,10.4,-5.8,48,30.39,10.0,West,6.9,-,N/A,,Clear,260,2014-01-08 05:15:00
12:35 AM,10.4,-5.8,48,30.40,10.0,WSW,5.8,-,N/A,,Clear,240,2014-01-08 05:35:00
12:55 AM,10.4,-5.8,48,30.41,10.0,WSW,8.1,-,N/A,,Clear,240,2014-01-08 05:55:00
1:15 AM,10.4,-5.8,48,30.41,10.0,West,5.8,-,N/A,,Clear,260,2014-01-08 06:15:00
1:35 AM,8.6,-5.8,52,30.42,10.0,WSW,6.9,-,N/A,,Clear,250,2014-01-08 06:35:00
1:55 AM,10.4,-5.8,48,30.42,10.0,West,3.5,-,N/A,,Clear,260,2014-01-08 06:55:00
2:15 AM,8.6,-5.8,52,30.44,10.0,West,6.9,-,N/A,,Clear,260,2014-01-08 07:15:00
2:35 AM,8.6,-4.0,57,30.44,10.0,West,6.9,-,N/A,,Clear,260,2014-01-08 07:35:00
2:55 AM,8.6,-4.0,57,30.45,10.0,West,3.5,-,N/A,,Clear,270,2014-01-08 07:55:00
3:15 AM,8.6,-4.0,57,30.45,10.0,WSW,4.6,-,N/A,,Clear,250,2014-01-08 08:15:00
3:35 AM,8.6,-4.0,57,30.44,10.0,WSW,5.8,-,N/A,,Clear,240,2014-01-08 08:35:00
3:55 AM,8.6,-4.0,57,30.44,10.0,Calm,Calm,-,N/A,,Clear,0,2014-01-08 08:55:00
4:15 AM,8.6,-4.0,57,30.46,10.0,SW,3.5,-,N/A,,Clear,220,2014-01-08 09:15:00
4:35 AM,8.6,-4.0,57,30.46,10.0,WSW,5.8,-,N/A,,Clear,250,2014-01-08 09:35:00
4:55 AM,8.6,-4.0,57,30.46,10.0,West,3.5,-,N/A,,Clear,260,2014-01-08 09:55:00
5:15 AM,8.6,-4.0,57,30.46,10.0,Calm,Calm,-,N/A,,Clear,0,2014-01-08 10:15:00
5:35 AM,8.6,-4.0,57,30.45,10.0,Calm,Calm,-,N/A,,Clear,0,2014-01-08 10:35:00
6:45 AM,6.8,-4.0,61,30.49,15.0,West,5.8,-,N/A,,Clear,260,2014-01-08 11:45:00
7:45 AM,6.8,-2.2,67,30.54,15.0,SSW,6.9,-,N/A,,Clear,210,2014-01-08 12:45:00
8:45 AM,10.4,-2.2,57,30.55,20.0,WNW,9.2,-,N/A,,Mostly Cloudy,300,2014-01-08 13:45:00
9:45 AM,12.2,-2.2,53,30.57,20.0,WNW,10.4,-,N/A,,Mostly Cloudy,300,2014-01-08 14:45:00
10:45 AM,14.0,-2.2,49,30.55,20.0,WNW,4.6,-,N/A,,Scattered Clouds,300,2014-01-08 15:45:00
11:45 AM,17.6,1.4,49,30.51,20.0,WNW,8.1,-,N/A,,Mostly Cloudy,300,2014-01-08 16:45:00
12:45 PM,17.6,1.4,49,30.48,20.0,NW,8.1,-,N/A,,Mostly Cloudy,310,2014-01-08 17:45:00
1:45 PM,19.4,1.4,46,30.48,20.0,West,8.1,-,N/A,,Mostly Cloudy,260,2014-01-08 18:45:00
2:45 PM,19.4,1.4,46,30.48,20.0,WSW,8.1,-,N/A,,Scattered Clouds,240,2014-01-08 19:45:00
3:45 PM,19.4,1.4,46,30.48,20.0,WSW,11.5,-,N/A,,Scattered Clouds,250,2014-01-08 20:45:00
4:45 PM,19.4,1.4,46,30.49,15.0,West,8.1,-,N/A,,Scattered Clouds,270,2014-01-08 21:45:00
5:55 PM,17.6,1.4,49,30.51,10.0,West,4.6,-,N/A,,Scattered Clouds,260,2014-01-08 22:55:00
6:45 PM,17.6,1.4,49,30.52,10.0,West,5.8,-,N/A,,Clear,270,2014-01-08 23:45:00
7:45 PM,17.6,1.4,49,30.52,10.0,SW,4.6,-,N/A,,Partly Cloudy,220,2014-01-09 00:45:00
8:45 PM,19.4,3.2,49,30.53,10.0,West,5.8,-,N/A,,Partly Cloudy,260,2014-01-09 01:45:00
9:45 PM,19.4,3.2,49,30.53,10.0,West,4.6,-,N/A,,Scattered Clouds,260,2014-01-09 02:45:00
9:55 PM,21.2,3.2,46,30.52,10.0,Calm,Calm,-,N/A,,Overcast,0,2014-01-09 02:55:00
10:15 PM,21.2,3.2,46,30.51,10.0,Calm,Calm,-,N/A,,Overcast,0,2014-01-09 03:15:00
10:35 PM,21.2,5.0,50,30.52,10.0,Calm,Calm,-,N/A,,Overcast,0,2014-01-09 03:35:00
10:55 PM,21.2,3.2,46,30.51,10.0,Calm,Calm,-,N/A,,Overcast,0,2014-01-09 03:55:00
11:15 PM,21.2,3.2,46,30.51,10.0,SW,3.5,-,N/A,,Overcast,230,2014-01-09 04:15:00
11:35 PM,23.0,3.2,43,30.50,10.0,SW,4.6,-,N/A,,Overcast,230,2014-01-09 04:35:00
11:55 PM,23.0,5.0,46,30.49,10.0,SW,4.6,-,N/A,,Overcast,220,2014-01-09 04:55:00